CEST,Max TemperatureF,Mean TemperatureF,Min TemperatureF,Max Dew PointF,MeanDew PointF,Min DewpointF,Max Humidity, Mean Humidity, Min Humidity, Max Sea Level PressureIn, Mean Sea Level PressureIn, Min Sea Level PressureIn, Max VisibilityMiles, Mean VisibilityMiles, Min VisibilityMiles, Max Wind SpeedMPH, Mean Wind SpeedMPH, Max Gust SpeedMPH,PrecipitationIn, CloudCover, Events, WindDirDegrees
2011-3-1,41,32,23,27,22,16,93,70,45,30.54,30.43,30.33,6,4,3,15,7,,0.00,,,66
2011-3-2,44,32,21,19,12,3,80,51,19,30.54,30.47,30.42,6,5,5,23,8,,0.00,,,54
2011-3-3,35,29,23,27,22,16,80,71,60,30.45,30.42,30.39,6,6,6,16,10,,0.00,6,,99
2011-3-4,41,34,24,27,26,23,93,77,57,30.48,30.41,30.30,6,6,3,8,5,,0.00,8,,155
2011-3-5,46,34,21,28,24,18,93,73,39,30.30,30.17,30.06,6,4,1,10,4,,0.00,5,,285
2011-3-6,39,31,23,28,18,10,87,62,31,30.42,30.24,30.15,6,6,6,17,7,,0.00,4,,327
2011-3-7,37,27,17,19,9,-2,80,50,19,30.60,30.55,30.45,,,,10,5,,0.00,,,81
2011-3-8,44,30,17,16,10,7,73,44,21,30.54,30.39,30.21,,,,10,7,,0.00,,,147
2011-3-9,55,39,23,32,23,12,74,51,38,30.21,30.07,29.95,,,,25,8,,0.00,,,190
2011-3-10,48,42,37,37,33,28,87,70,53,30.01,29.98,29.92,6,6,6,25,11,,0.00,3,Rain,234
2011-3-11,50,44,39,34,32,30,75,58,50,30.06,29.99,29.92,6,6,6,29,20,,0.00,3,,233
2011-3-12,57,45,33,34,31,28,87,63,36,30.06,29.92,29.74,6,6,6,13,8,,0.00,,,144
2011-3-13,55,42,30,36,32,27,93,66,41,29.80,29.77,29.74,6,4,2,8,4,,0.00,3,,41
2011-3-14,57,46,35,39,35,30,81,66,44,30.09,29.95,29.80,6,4,2,8,4,,0.00,2,,284
2011-3-15,59,47,35,41,38,34,100,72,45,30.09,30.06,30.01,6,4,1,20,6,,0.00,1,,48
2011-3-16,59,49,39,46,42,37,93,84,55,30.01,29.85,29.68,6,4,1,25,12,,0.00,4,Fog-Rain,79
2011-3-17,50,46,41,50,47,39,100,96,87,29.68,29.60,29.56,6,2,0,17,12,,0.00,7,Fog-Rain,66
2011-3-18,41,36,32,39,34,32,100,92,81,30.18,29.96,29.71,6,5,1,20,12,,0.00,8,Rain-Snow,294
2011-3-19,42,38,32,34,31,27,93,78,57,30.45,30.31,30.18,6,6,6,17,9,,0.00,6,,327
2011-3-20,44,35,26,32,27,23,93,74,49,30.51,30.48,30.45,6,6,6,13,6,,0.00,3,,281
2011-3-21,50,38,26,30,26,23,93,64,35,30.60,30.54,30.51,6,6,6,8,4,,0.00,1,,219
2011-3-22,55,42,30,32,28,23,86,60,30,30.60,30.55,30.51,,,,9,6,,0.00,,,279
2011-3-23,57,46,35,41,31,23,87,60,29,30.60,30.57,30.54,6,5,4,13,8,,0.00,3,,278
2011-3-24,59,46,32,37,30,21,81,57,26,30.57,30.47,30.33,,,,15,9,,0.00,,,267
2011-3-25,59,48,37,39,38,34,93,69,45,30.33,30.06,29.86,6,6,5,10,7,,0.00,2,,271
2011-3-26,48,42,35,39,34,30,93,74,53,30.04,29.92,29.86,6,6,4,16,7,,0.00,5,Rain,318
2011-3-27,48,40,32,34,31,28,93,75,50,30.04,29.98,29.86,6,6,4,8,3,,0.00,3,,114
2011-3-28,57,44,32,39,31,23,100,65,35,29.98,29.88,29.83,6,5,2,14,7,,0.00,2,,259
2011-3-29,59,42,26,32,26,23,87,55,25,30.04,30.00,29.95,,,,8,5,,0.00,,,221
2011-3-30,62,48,33,37,32,27,87,55,27,30.01,29.99,29.95,,,,12,7,,0.00,,,218
2011-3-31,60,50,41,48,40,34,94,64,45,30.09,30.06,30.01,6,6,6,21,13,,0.00,3,Rain,222